Erzincan, Turkey

7:19 PM EET on February 10, 2016 (GMT +0200)
Erzincan

Weather History for LTCD - November, 2012

Change the Weather History Date:

Saturday, November 3, 2012

  Actual Average Record
Temperature  
Mean Temperature 48 °F -  
Max Temperature 64 °F 51 °F - ()
Min Temperature 33 °F 32 °F - ()
Degree Days  
Heating Degree Days 16    
Moisture  
Dew Point 43 °F    
Average Humidity 78    
Maximum Humidity 100    
Minimum Humidity 35    
Precipitation  
Precipitation 0.02 in 0.05 in - ()
Sea Level Pressure  
Sea Level Pressure 30.13 in    
Wind  
Wind Speed 2 mph ()    
Max Wind Speed 10 mph    
Max Gust Speed -    
Visibility 5.5 miles    
Events Rain    
T = Trace of Precipitation, MM = Missing Value Source: Averaged Metar Reports

Daily Weather History Graph

Daily Weather History Graph

Search for Another Location

Airport or City:

Trip Planner

Search our weather history database for the weather conditions in past years. The results will help you decide how hot, cold, wet, or windy it might be!

Date:

Astronomy

Nov. 03, 2012 Rise Set
Actual Time 5:53 AM EET 4:17 PM EET
Civil Twilight 5:24 AM EET 4:45 PM EET
Nautical Twilight 4:52 AM EET 5:17 PM EET
Astronomical Twilight 4:21 AM EET 5:49 PM EET
Moon 7:39 PM EET (11/3) 9:41 AM EET (11/3)
Length of Visible Light 11h 20m
Length of Day
10h 24m
Waning Gibbous, 82% of the Moon is Illuminated
Nov 3
Waning Gibbous
Nov 7
Last Quarter
Nov 14
New
Nov 20
First Quarter
Nov 28
Full

Hourly Weather History & Observations

Time (EET) Temp. Dew Point Humidity Pressure Visibility Wind Dir Wind Speed Gust Speed Precip Events Conditions
12:50 AM 41.0 °F 39.2 °F 93% 30.12 in 6.2 mi Variable 1.2 mph - N/A   Partly Cloudy
1:50 AM 39.2 °F 39.2 °F 100% 30.12 in - Calm Calm - N/A   Mist
2:00 AM 39 °F 38 °F 96%  in 3 mi Calm Calm - -   Mist
2:50 AM 37.4 °F 37.4 °F 100% 30.12 in - Variable 2.3 mph - N/A   Mist
3:50 AM 37.4 °F 37.4 °F 100% 30.15 in 2.5 mi Variable 1.2 mph - N/A   Mist
4:50 AM 35.6 °F 35.6 °F 100% 30.15 in 2.5 mi Variable 1.2 mph - N/A   Mist
5:50 AM 33.8 °F 33.8 °F 100% 30.15 in - Calm Calm - N/A   Mist
6:50 AM 37.4 °F 37.4 °F 100% 30.15 in - Calm Calm - N/A   Mist
7:50 AM 41.0 °F 41.0 °F 100% 30.15 in 3.7 mi Variable 1.2 mph - N/A   Scattered Clouds
8:00 AM 42 °F 41 °F 97%  in 6 mi NNW 1.2 mph - -   Mist
8:50 AM 48.2 °F 44.6 °F 87% 30.15 in 4.3 mi WNW 2.3 mph - N/A   Scattered Clouds
9:50 AM 53.6 °F 44.6 °F 72% 30.15 in 6.2 mi Variable 2.3 mph - N/A   Scattered Clouds
10:50 AM 59.0 °F 44.6 °F 59% 30.12 in 6.2 mi Variable 1.2 mph - N/A   Mostly Cloudy
11:50 AM 62.6 °F 44.6 °F 52% 30.12 in 6.2 mi Calm Calm - N/A   Mostly Cloudy
12:50 PM 62.6 °F 44.6 °F 52% 30.09 in 6.2 mi SSE 4.6 mph - N/A   Mostly Cloudy
1:50 PM 62.6 °F 42.8 °F 48% 30.09 in 6.2 mi South 4.6 mph - N/A   Mostly Cloudy
2:00 PM 63 °F 42 °F 35%  in 6 mi South 4.6 mph - -   Partly Cloudy
2:50 PM 64.4 °F 42.8 °F 45% 30.09 in 6.2 mi SE 4.6 mph - N/A   Mostly Cloudy
3:50 PM 60.8 °F 42.8 °F 52% 30.09 in 6.2 mi SSE 2.3 mph - N/A   Mostly Cloudy
4:50 PM 57.2 °F 44.6 °F 63% 30.09 in 6.2 mi Calm Calm - N/A   Mostly Cloudy
5:50 PM 53.6 °F 44.6 °F 72% 30.12 in 6.2 mi Calm Calm - N/A   Mostly Cloudy
6:50 PM 50.0 °F 44.6 °F 82% 30.12 in 6.2 mi Calm Calm - N/A   Scattered Clouds
7:50 PM 51.8 °F 44.6 °F 76% 30.15 in 6.2 mi Calm Calm - N/A   Scattered Clouds
8:00 PM 52 °F 46 °F 71%  in 6 mi Calm Calm - -   Partly Cloudy
8:50 PM 59.0 °F 48.2 °F 67% 30.15 in 6.2 mi WNW 10.4 mph - N/A   Mostly Cloudy
9:50 PM 57.2 °F 48.2 °F 72% 30.18 in 6.2 mi NNW 9.2 mph - N/A   Mostly Cloudy
10:50 PM 53.6 °F 50.0 °F 88% 30.18 in 6.2 mi WNW 5.8 mph - N/A Rain Light Rain Showers
11:50 PM 51.8 °F 50.0 °F 94% 30.18 in 6.2 mi Calm Calm - N/A Rain Light Rain Showers